Wilmington, DE

1:58 AM EST on November 17, 2019 (GMT -0500)
New Castle County

Weather History for KILG - August, 2019

Change the Weather History Date:

Tuesday, August 6, 2019

  Actual Average Record
Temperature  
Mean Temperature 81 °F 76 °F  
Max Temperature 87 °F 85 °F 103 °F (1896)
Min Temperature 74 °F 67 °F 51 °F (1957)
Degree Days  
Heating Degree Days 0 0  
Month to date heating degree days 0 0  
Since 1 June heating degree days 5 15  
Since 1 July heating degree days 0 0  
Cooling Degree Days 16 11  
Month to date cooling degree days 87 68  
Year to date cooling degree days 949 745  
Since 1 June cooling degree days 817 666  
Growing Degree Days 30 (Base 50)    
Moisture  
Dew Point 72 °F    
Average Humidity 76    
Maximum Humidity 94    
Minimum Humidity 57    
Precipitation  
Precipitation 0.10 in 0.12 in 1.50 in (1995)
Month to date precipitation 0.50 0.72  
Year to date precipitation 33.96 26.23  
Snow  
Snow 0.00 in 0.00 in 0.00 in (1894)
Month to date snowfall 0.0 0.0  
Since 1 June snowfall 0.0 0.0  
Since 1 July snowfall 0.0 0.0  
Snow Depth 0.00 in    
Sea Level Pressure  
Sea Level Pressure 29.88 in    
Wind  
Wind Speed 7 mph (SE)    
Max Wind Speed 21 mph    
Max Gust Speed 26 mph    
Visibility 9 miles    
Events Rain , Thunderstorm    
T = Trace of Precipitation, MM = Missing Value Source: NWS Daily Summary

Daily Weather History Graph

Daily Weather History Graph

Search for Another Location

Airport or City:

Astronomy

Aug. 06, 2019 Rise Set
Actual Time 6:05 AM EDT 8:10 PM EDT
Civil Twilight 5:36 AM EDT 8:39 PM EDT
Nautical Twilight 4:59 AM EDT 9:15 PM EDT
Astronomical Twilight 4:20 AM EDT 9:55 PM EDT
Moon 12:27 PM EDT (8/6) 11:54 PM EDT (8/6)
Length of Visible Light 15h 03m
Length of Day
14h 04m
Waxing Crescent, 38% of the Moon is Illuminated
Aug 6
Waxing Crescent
Aug 7
First Quarter
Aug 15
Full
Aug 23
Last Quarter
Aug 30
New

Hourly Weather History & Observations

Time (EDT) Temp. Heat Index Dew Point Humidity Pressure Visibility Wind Dir Wind Speed Gust Speed Precip Events Conditions
12:51 AM 75.0 °F - 71.1 °F 87% 29.93 in 10.0 mi East 4.6 mph - N/A   Clear
1:51 AM 73.9 °F - 71.1 °F 91% 29.91 in 10.0 mi SE 3.5 mph - N/A   Partly Cloudy
2:51 AM 75.0 °F - 71.1 °F 87% 29.90 in 10.0 mi Calm Calm - N/A   Clear
3:12 AM 75.0 °F - 71.1 °F 87% 29.90 in 10.0 mi Calm Calm - N/A   Mostly Cloudy
3:30 AM 75.0 °F - 72.0 °F 90% 29.90 in 10.0 mi Calm Calm - N/A   Mostly Cloudy
3:39 AM 75.0 °F - 72.0 °F 90% 29.90 in 10.0 mi Calm Calm - N/A   Scattered Clouds
3:51 AM 73.9 °F - 71.1 °F 91% 29.90 in 10.0 mi Calm Calm - N/A   Partly Cloudy
3:59 AM 75.0 °F - 71.1 °F 87% 29.90 in 10.0 mi Calm Calm - N/A   Partly Cloudy
4:15 AM 75.0 °F - 72.0 °F 90% 29.90 in 10.0 mi Calm Calm - N/A   Mostly Cloudy
4:51 AM 75.0 °F - 72.0 °F 90% 29.90 in 10.0 mi NNE 3.5 mph - N/A   Overcast
5:51 AM 75.0 °F - 73.0 °F 94% 29.90 in 9.0 mi Calm Calm - N/A   Overcast
6:34 AM 75.0 °F - 73.0 °F 94% 29.90 in 6.0 mi NE 3.5 mph - N/A   Partly Cloudy
6:51 AM 75.0 °F - 73.0 °F 94% 29.90 in 7.0 mi Calm Calm - N/A   Partly Cloudy
7:51 AM 78.1 °F - 73.9 °F 87% 29.89 in 7.0 mi Calm Calm - N/A   Clear
8:32 AM 81.0 °F 86.2 °F 73.9 °F 79% 29.89 in 7.0 mi Calm Calm - N/A   Partly Cloudy
8:51 AM 81.0 °F 85.8 °F 73.0 °F 77% 29.88 in 9.0 mi Variable 4.6 mph - N/A   Mostly Cloudy
9:51 AM 82.0 °F 87.9 °F 73.9 °F 76% 29.89 in 10.0 mi Variable 3.5 mph - N/A   Partly Cloudy
10:34 AM 81.0 °F 85.8 °F 73.0 °F 77% 29.90 in 10.0 mi South 4.6 mph - N/A   Mostly Cloudy
10:51 AM 80.1 °F 83.8 °F 72.0 °F 76% 29.89 in 10.0 mi SSE 6.9 mph - N/A   Mostly Cloudy
11:11 AM 78.1 °F - 70.0 °F 76% 29.90 in 10.0 mi South 5.8 mph - 0.01 in Rain Light Rain
11:30 AM 80.1 °F 83.2 °F 70.0 °F 71% 29.90 in 10.0 mi SSE 4.6 mph - 0.01 in   Overcast
11:37 AM 80.1 °F 82.9 °F 69.1 °F 69% 29.90 in 10.0 mi ESE 4.6 mph - 0.01 in Thunderstorm Thunderstorm
11:51 AM 80.1 °F 82.7 °F 68.0 °F 67% 29.90 in 10.0 mi ESE 3.5 mph - 0.01 in   Overcast
12:05 PM 77.0 °F - 71.1 °F 82% 29.90 in 3.0 mi East 4.6 mph - 0.08 in Rain , Thunderstorm Light Rain
12:34 PM 80.1 °F 83.8 °F 72.0 °F 76% 29.88 in 10.0 mi East 3.5 mph - 0.09 in   Partly Cloudy
12:51 PM 84.0 °F 90.2 °F 73.0 °F 69% 29.88 in 10.0 mi NW 3.5 mph - 0.09 in   Clear
1:51 PM 84.0 °F 89.6 °F 72.0 °F 67% 29.86 in 10.0 mi Variable 4.6 mph - N/A   Partly Cloudy
2:51 PM 86.0 °F 90.7 °F 70.0 °F 59% 29.83 in 10.0 mi ESE 10.4 mph - N/A   Partly Cloudy
3:51 PM 87.1 °F 92.8 °F 71.1 °F 59% 29.81 in 10.0 mi SSE 15.0 mph - N/A   Clear
4:51 PM 84.9 °F 90.1 °F 71.1 °F 63% 29.83 in 10.0 mi South 19.6 mph - N/A   Clear
5:51 PM 82.9 °F 88.0 °F 72.0 °F 69% 29.82 in 10.0 mi South 15.0 mph - N/A   Clear
6:51 PM 81.0 °F 85.2 °F 72.0 °F 74% 29.83 in 10.0 mi SSE 16.1 mph - N/A   Clear
7:51 PM 79.0 °F - 72.0 °F 79% 29.82 in 10.0 mi South 15.0 mph - N/A   Clear
8:51 PM 78.1 °F - 73.0 °F 84% 29.83 in 10.0 mi SE 10.4 mph - N/A   Clear
9:51 PM 77.0 °F - 73.0 °F 88% 29.85 in 10.0 mi SE 6.9 mph - N/A   Clear
10:51 PM 75.9 °F - 72.0 °F 87% 29.84 in 10.0 mi SE 5.8 mph - N/A   Clear
11:51 PM 78.1 °F - 72.0 °F 81% 29.83 in 10.0 mi South 8.1 mph - N/A   Clear